Voltar ao catálogo

DELTA 1 DEB

AtivoUNKNOWN
NORAD 10864·DEBRIS·🇺🇸 United States

Lançado Jul 29, 1976 de Vandenberg Space Force Base

Loading…

Próximas Passagens (próximas 24 horas)

TLE

AtualizadoSource: Space-Track

Época: Sep 12, 2026, 10:10 UTC

1 10864U 76077CS  26255.42361991  .00000039  00000-0  99247-3 0  9997
2 10864 101.0986 316.4195 0377044 215.3323 156.5281 11.75894122141597

Acompanhe DELTA 1 DEB em tempo real com AllMySat

Download on the App Store